Terminal Aerodrome Forecast
Issued by NWS Melbourne, FL

Home | Current Version | Previous Version | Text Only | Print | Product List | Glossary On
Versions: 1 2 3 4 5 6 7 8 9 10 11 12 13 14 15 16 17 18 19
000
FTUS42 KMLB 241128 AAA
TAFVRB
TAF AMD
KVRB 241128Z 2411/2512 22005KT 5SM BR SCT005 BKN015
      TEMPO 2412/2413 2SM BR BKN005
     FM241400 24008KT P6SM BKN025
     FM241700 25010KT P6SM VCTS SCT030CB BKN060
      TEMPO 2418/2420 3SM TSRA BKN025CB
     FM250000 26008KT P6SM SCT030 SCT060
     FM250600 26008KT P6SM FEW250=

USA.gov is the U.S. government's official web portal to all federal, state and local government web resources and services.